29-03-2022, 00:00:08,    188,    0.0,    9.7,   0.00,   0.00, 1012.9,   69.3, -999.0
29-03-2022, 00:00:18,    188,    0.0,    9.7,   0.00,   0.00, 1012.9,   69.3, -999.0
29-03-2022, 00:00:28,    188,    0.0,    9.7,   0.00,   0.00, 1012.9,   69.5, -999.0
29-03-2022, 00:00:38,    187,    0.0,    9.6,   0.00,   0.00, 1012.9,   69.7, -999.0
29-03-2022, 00:00:48,    188,    0.0,    9.6,   0.00,   0.00, 1012.9,   69.6, -999.0
29-03-2022, 00:00:58,    188,    0.0,    9.6,   0.00,   0.00, 1012.9,   69.8, -999.0
29-03-2022, 00:01:08,    188,    0.0,    9.6,   0.00,   0.00, 1012.9,   69.9, -999.0
29-03-2022, 00:01:18,    187,    0.0,    9.6,   0.00,   0.00, 1012.9,   69.8, -999.0
29-03-2022, 00:01:28,    187,    0.0,    9.6,   0.00,   0.00, 1012.9,   69.9, -999.0
29-03-2022, 00:01:38,    188,    0.0,    9.6,   0.00,   0.00, 1012.9,   69.9, -999.0
29-03-2022, 00:01:48,    187,    0.0,    9.6,   0.00,   0.00, 1012.9,   70.1, -999.0
29-03-2022, 00:01:57,    188,    0.0,    9.5,   0.00,   0.00, 1012.9,   70.2, -999.0
29-03-2022, 00:02:08,    188,    0.0,    9.6,   0.00,   0.00, 1012.9,   70.1, -999.0
29-03-2022, 00:02:18,    188,    0.0,    9.5,   0.00,   0.00, 1012.9,   70.2, -999.0
29-03-2022, 00:02:27,    187,    0.0,    9.5,   0.00,   0.00, 1012.9,   70.2, -999.0
29-03-2022, 00:02:37,    187,    0.0,    9.5,   0.00,   0.00, 1012.9,   70.1, -999.0
29-03-2022, 00:02:48,    188,    0.0,    9.5,   0.00,   0.00, 1012.9,   70.2, -999.0
29-03-2022, 00:02:57,    187,    0.0,    9.5,   0.00,   0.00, 1012.9,   70.2, -999.0
29-03-2022, 00:03:07,    188,    0.0,    9.5,   0.00,   0.00, 1012.9,   70.4, -999.0
29-03-2022, 00:03:17,    188,    0.0,    9.5,   0.00,   0.00, 1012.9,   70.4, -999.0
29-03-2022, 00:03:27,    188,    0.0,    9.5,   0.00,   0.00, 1012.9,   70.3, -999.0
29-03-2022, 00:03:37,    188,    0.0,    9.5,   0.00,   0.00, 1012.9,   70.3, -999.0
29-03-2022, 00:03:47,    188,    0.0,    9.5,   0.00,   0.00, 1012.9,   70.4, -999.0
29-03-2022, 00:03:57,    188,    0.0,    9.5,   0.00,   0.00, 1012.9,   70.6, -999.0
29-03-2022, 00:04:07,    188,    0.0,    9.6,   0.00,   0.00, 1012.9,   70.8, -999.0
29-03-2022, 00:04:17,    188,    0.0,    9.6,   0.00,   0.00, 1012.9,   70.8, -999.0
29-03-2022, 00:04:27,    187,    0.0,    9.6,   0.00,   0.00, 1012.9,   70.7, -999.0
29-03-2022, 00:04:37,    188,    0.0,    9.5,   0.00,   0.00, 1012.9,   70.5, -999.0
29-03-2022, 00:04:47,    187,    0.0,    9.5,   0.00,   0.00, 1012.9,   70.5, -999.0
29-03-2022, 00:04:57,    187,    0.0,    9.5,   0.00,   0.00, 1012.9,   70.5, -999.0
29-03-2022, 00:05:06,    187,    0.0,    9.5,   0.00,   0.00, 1012.9,   70.4, -999.0
29-03-2022, 00:05:17,    188,    0.0,    9.5,   0.00,   0.00, 1012.9,   70.5, -999.0
29-03-2022, 00:05:27,    188,    0.0,    9.5,   0.00,   0.00, 1012.9,   70.5, -999.0
29-03-2022, 00:05:36,    188,    0.0,    9.5,   0.00,   0.00, 1012.9,   70.5, -999.0
29-03-2022, 00:05:46,    187,    0.0,    9.4,   0.00,   0.00, 1012.9,   70.6, -999.0
29-03-2022, 00:05:57,    187,    0.0,    9.4,   0.00,   0.00, 1012.9,   70.7, -999.0
29-03-2022, 00:06:06,    187,    0.0,    9.4,   0.00,   0.00, 1012.9,   70.8, -999.0
29-03-2022, 00:06:16,    188,    0.0,    9.5,   0.00,   0.00, 1012.9,   70.9, -999.0
29-03-2022, 00:06:26,    187,    0.0,    9.5,   0.00,   0.00, 1012.9,   70.9, -999.0
29-03-2022, 00:06:36,    187,    0.0,    9.4,   0.00,   0.00, 1012.9,   70.8, -999.0
29-03-2022, 00:06:46,    188,    0.0,    9.4,   0.00,   0.00, 1012.9,   70.8, -999.0
29-03-2022, 00:06:56,    188,    0.0,    9.4,   0.00,   0.00, 1012.9,   70.9, -999.0
29-03-2022, 00:07:06,    187,    0.0,    9.5,   0.00,   0.00, 1012.9,   70.9, -999.0
29-03-2022, 00:07:16,    188,    0.0,    9.3,   0.00,   0.00, 1012.9,   70.9, -999.0
29-03-2022, 00:07:26,    188,    0.0,    9.4,   0.00,   0.00, 1012.9,   71.0, -999.0
29-03-2022, 00:07:36,    188,    0.0,    9.4,   0.00,   0.00, 1012.9,   70.9, -999.0
29-03-2022, 00:07:46,    188,    0.0,    9.4,   0.00,   0.00, 1012.9,   70.9, -999.0
29-03-2022, 00:07:56,    188,    0.0,    9.4,   0.00,   0.00, 1012.9,   70.9, -999.0
29-03-2022, 00:08:06,    188,    0.0,    9.4,   0.00,   0.00, 1012.9,   71.0, -999.0
29-03-2022, 00:08:15,    188,    0.0,    9.4,   0.00,   0.00, 1012.9,   70.9, -999.0
29-03-2022, 00:08:26,    187,    0.0,    9.4,   0.00,   0.00, 1012.9,   70.9, -999.0
29-03-2022, 00:08:36,    188,    0.0,    9.3,   0.00,   0.00, 1012.8,   70.9, -999.0
29-03-2022, 00:08:45,    188,    0.0,    9.3,   0.00,   0.00, 1012.8,   71.0, -999.0
29-03-2022, 00:08:55,    187,    0.0,    9.4,   0.00,   0.00, 1012.8,   70.9, -999.0
29-03-2022, 00:09:06,    187,    0.0,    9.4,   0.00,   0.00, 1012.8,   70.9, -999.0
29-03-2022, 00:09:15,    188,    0.0,    9.3,   0.00,   0.00, 1012.8,   71.0, -999.0
29-03-2022, 00:09:25,    187,    0.0,    9.3,   0.00,   0.00, 1012.8,   71.0, -999.0
29-03-2022, 00:09:35,    187,    0.0,    9.3,   0.00,   0.00, 1012.8,   71.1, -999.0
29-03-2022, 00:09:45,    188,    0.0,    9.3,   0.00,   0.00, 1012.8,   71.0, -999.0
29-03-2022, 00:09:55,    188,    0.0,    9.3,   0.00,   0.00, 1012.8,   71.0, -999.0
29-03-2022, 00:10:05,    187,    0.0,    9.3,   0.00,   0.00, 1012.8,   71.2, -999.0
29-03-2022, 00:10:15,    187,    0.0,    9.3,   0.00,   0.00, 1012.8,   71.0, -999.0
29-03-2022, 00:10:25,    188,    0.0,    9.3,   0.00,   0.00, 1012.8,   71.1, -999.0
29-03-2022, 00:10:35,    188,    0.0,    9.3,   0.00,   0.00, 1012.8,   71.0, -999.0
29-03-2022, 00:10:45,    187,    0.0,    9.3,   0.00,   0.00, 1012.8,   70.9, -999.0
29-03-2022, 00:10:55,    187,    0.0,    9.3,   0.00,   0.00, 1012.8,   71.1, -999.0
29-03-2022, 00:11:05,    187,    0.0,    9.3,   0.00,   0.00, 1012.8,   71.0, -999.0
29-03-2022, 00:11:15,    188,    0.0,    9.3,   0.00,   0.00, 1012.8,   71.1, -999.0
29-03-2022, 00:11:24,    188,    0.0,    9.3,   0.00,   0.00, 1012.8,   71.1, -999.0
29-03-2022, 00:11:35,    188,    0.0,    9.3,   0.00,   0.00, 1012.8,   71.1, -999.0
29-03-2022, 00:11:45,    187,    0.0,    9.3,   0.00,   0.00, 1012.7,   71.2, -999.0
29-03-2022, 00:11:54,    187,    0.0,    9.3,   0.00,   0.00, 1012.8,   71.3, -999.0
29-03-2022, 00:12:05,    188,    0.0,    9.2,   0.00,   0.00, 1012.8,   71.5, -999.0
29-03-2022, 00:12:15,    187,    0.0,    9.3,   0.00,   0.00, 1012.8,   71.6, -999.0
29-03-2022, 00:12:24,    187,    0.0,    9.3,   0.00,   0.00, 1012.8,   71.5, -999.0
29-03-2022, 00:12:34,    187,    0.0,    9.3,   0.00,   0.00, 1012.8,   71.5, -999.0
29-03-2022, 00:12:44,    188,    0.0,    9.3,   0.00,   0.00, 1012.8,   71.7, -999.0
29-03-2022, 00:12:54,    187,    0.0,    9.2,   0.00,   0.00, 1012.8,   71.7, -999.0
29-03-2022, 00:13:04,    188,    0.0,    9.3,   0.00,   0.00, 1012.8,   72.0, -999.0
29-03-2022, 00:13:14,    188,    0.0,    9.2,   0.00,   0.00, 1012.8,   72.0, -999.0
29-03-2022, 00:13:24,    187,    0.0,    9.3,   0.00,   0.00, 1012.8,   72.0, -999.0
29-03-2022, 00:13:34,    187,    0.0,    9.3,   0.00,   0.00, 1012.8,   72.0, -999.0
29-03-2022, 00:13:44,    187,    0.0,    9.3,   0.00,   0.00, 1012.8,   72.1, -999.0
29-03-2022, 00:13:54,    187,    0.0,    9.3,   0.00,   0.00, 1012.8,   72.0, -999.0
29-03-2022, 00:14:04,    187,    0.0,    9.2,   0.00,   0.00, 1012.8,   72.0, -999.0
29-03-2022, 00:14:14,    187,    0.0,    9.1,   0.00,   0.00, 1012.8,   72.1, -999.0
29-03-2022, 00:14:24,    188,    0.0,    9.2,   0.00,   0.00, 1012.8,   72.1, -999.0
29-03-2022, 00:14:34,    188,    0.0,    9.2,   0.00,   0.00, 1012.8,   72.2, -999.0
29-03-2022, 00:14:44,    188,    0.0,    9.2,   0.00,   0.00, 1012.8,   72.2, -999.0
29-03-2022, 00:14:54,    187,    0.0,    9.1,   0.00,   0.00, 1012.8,   72.3, -999.0
29-03-2022, 00:15:03,    188,    0.0,    9.2,   0.00,   0.00, 1012.8,   72.2, -999.0
29-03-2022, 00:15:14,    187,    0.0,    9.1,   0.00,   0.00, 1012.8,   72.3, -999.0
29-03-2022, 00:15:24,    188,    0.0,    9.2,   0.00,   0.00, 1012.8,   72.3, -999.0
29-03-2022, 00:15:33,    187,    0.0,    9.1,   0.00,   0.00, 1012.8,   72.3, -999.0
29-03-2022, 00:15:43,    187,    0.0,    9.1,   0.00,   0.00, 1012.8,   72.2, -999.0
29-03-2022, 00:15:53,    188,    0.0,    9.1,   0.00,   0.00, 1012.8,   72.3, -999.0
29-03-2022, 00:16:03,    187,    0.0,    9.1,   0.00,   0.00, 1012.8,   72.4, -999.0
29-03-2022, 00:16:13,    187,    0.0,    9.0,   0.00,   0.00, 1012.8,   72.5, -999.0
29-03-2022, 00:16:23,    187,    0.0,    9.1,   0.00,   0.00, 1012.8,   72.5, -999.0
29-03-2022, 00:16:33,    188,    0.0,    9.1,   0.00,   0.00, 1012.8,   72.6, -999.0
29-03-2022, 00:16:43,    187,    0.0,    9.1,   0.00,   0.00, 1012.8,   72.6, -999.0
29-03-2022, 00:16:53,    188,    0.0,    9.1,   0.00,   0.00, 1012.8,   72.8, -999.0
29-03-2022, 00:17:03,    187,    0.0,    9.1,   0.00,   0.00, 1012.8,   72.8, -999.0
29-03-2022, 00:17:13,    187,    0.0,    9.1,   0.00,   0.00, 1012.8,   72.8, -999.0
29-03-2022, 00:17:23,    188,    0.0,    9.1,   0.00,   0.00, 1012.8,   72.9, -999.0
29-03-2022, 00:17:33,    187,    0.0,    9.2,   0.00,   0.00, 1012.8,   72.9, -999.0
29-03-2022, 00:17:43,    187,    0.0,    9.1,   0.00,   0.00, 1012.8,   72.9, -999.0
29-03-2022, 00:17:53,    187,    0.0,    9.1,   0.00,   0.00, 1012.8,   72.9, -999.0
29-03-2022, 00:18:03,    188,    0.0,    9.2,   0.00,   0.00, 1012.8,   73.1, -999.0
29-03-2022, 00:18:13,    187,    0.0,    9.2,   0.00,   0.00, 1012.8,   73.1, -999.0
29-03-2022, 00:18:23,    187,    0.0,    9.2,   0.00,   0.00, 1012.8,   73.1, -999.0
29-03-2022, 00:18:32,    187,    0.0,    9.1,   0.00,   0.00, 1012.8,   73.1, -999.0
29-03-2022, 00:18:42,    188,    0.0,    9.0,   0.00,   0.00, 1012.8,   73.1, -999.0
29-03-2022, 00:18:53,    187,    0.0,    9.1,   0.00,   0.00, 1012.8,   73.1, -999.0
29-03-2022, 00:19:02,    187,    0.0,    9.1,   0.00,   0.00, 1012.8,   73.1, -999.0
29-03-2022, 00:19:12,    188,    0.0,    9.1,   0.00,   0.00, 1012.8,   73.0, -999.0
29-03-2022, 00:19:22,    187,    0.0,    9.1,   0.00,   0.00, 1012.8,   73.1, -999.0
29-03-2022, 00:19:32,    188,    0.0,    9.1,   0.00,   0.00, 1012.8,   73.1, -999.0
29-03-2022, 00:19:42,    188,    0.0,    9.1,   0.00,   0.00, 1012.8,   73.1, -999.0
29-03-2022, 00:19:52,    187,    0.0,    9.1,   0.00,   0.00, 1012.8,   73.0, -999.0
29-03-2022, 00:20:02,    187,    0.0,    9.1,   0.00,   0.00, 1012.8,   73.1, -999.0
29-03-2022, 00:20:12,    187,    0.0,    9.2,   0.00,   0.00, 1012.8,   73.2, -999.0
29-03-2022, 00:20:22,    188,    0.0,    9.1,   0.00,   0.00, 1012.8,   73.1, -999.0
29-03-2022, 00:20:32,    188,    0.0,    9.1,   0.00,   0.00, 1012.8,   73.0, -999.0
29-03-2022, 00:20:42,    187,    0.0,    9.1,   0.00,   0.00, 1012.8,   72.9, -999.0
29-03-2022, 00:20:52,    187,    0.0,    9.1,   0.00,   0.00, 1012.8,   73.1, -999.0
29-03-2022, 00:21:02,    187,    0.0,    9.1,   0.00,   0.00, 1012.8,   73.0, -999.0
29-03-2022, 00:21:11,    187,    0.0,    9.1,   0.00,   0.00, 1012.8,   73.0, -999.0
29-03-2022, 00:21:22,    188,    0.0,    9.1,   0.00,   0.00, 1012.8,   73.0, -999.0
29-03-2022, 00:21:32,    187,    0.0,    9.1,   0.00,   0.00, 1012.8,   73.1, -999.0
29-03-2022, 00:21:41,    187,    0.0,    9.1,   0.00,   0.00, 1012.8,   73.1, -999.0
29-03-2022, 00:21:52,    188,    0.0,    9.2,   0.00,   0.00, 1012.8,   73.1, -999.0
29-03-2022, 00:22:02,    186,    0.0,    9.1,   0.00,   0.00, 1012.8,   73.1, -999.0
29-03-2022, 00:22:11,    188,    0.0,    9.2,   0.00,   0.00, 1012.8,   73.1, -999.0
29-03-2022, 00:22:21,    187,    0.0,    9.2,   0.00,   0.00, 1012.8,   73.3, -999.0
29-03-2022, 00:22:32,    187,    0.0,    9.2,   0.00,   0.00, 1012.8,   73.2, -999.0
29-03-2022, 00:22:41,    188,    0.0,    9.2,   0.00,   0.00, 1012.8,   73.2, -999.0
29-03-2022, 00:22:51,    188,    0.0,    9.2,   0.00,   0.00, 1012.8,   73.2, -999.0
29-03-2022, 00:23:01,    188,    0.0,    9.2,   0.00,   0.00, 1012.8,   73.1, -999.0
29-03-2022, 00:23:11,    187,    0.0,    9.2,   0.00,   0.00, 1012.8,   73.1, -999.0
29-03-2022, 00:23:21,    187,    0.0,    9.2,   0.00,   0.00, 1012.8,   73.1, -999.0
29-03-2022, 00:23:31,    187,    0.0,    9.1,   0.00,   0.00, 1012.8,   73.1, -999.0
29-03-2022, 00:23:41,    188,    0.0,    9.2,   0.00,   0.00, 1012.8,   73.1, -999.0
29-03-2022, 00:23:51,    188,    0.0,    9.2,   0.00,   0.00, 1012.8,   72.9, -999.0
29-03-2022, 00:24:01,    187,    0.0,    9.1,   0.00,   0.00, 1012.8,   73.0, -999.0
29-03-2022, 00:24:11,    188,    0.0,    9.1,   0.00,   0.00, 1012.8,   73.0, -999.0
29-03-2022, 00:24:21,    188,    0.0,    9.1,   0.00,   0.00, 1012.8,   73.1, -999.0
29-03-2022, 00:24:31,    188,    0.0,    9.1,   0.00,   0.00, 1012.8,   72.9, -999.0
29-03-2022, 00:24:41,    187,    0.0,    9.1,   0.00,   0.00, 1012.8,   72.9, -999.0
29-03-2022, 00:24:50,    188,    0.0,    9.1,   0.00,   0.00, 1012.8,   73.0, -999.0
29-03-2022, 00:25:01,    188,    0.0,    9.1,   0.00,   0.00, 1012.8,   72.9, -999.0
29-03-2022, 00:25:11,    188,    0.0,    9.1,   0.00,   0.00, 1012.8,   73.0, -999.0
29-03-2022, 00:25:20,    188,    0.0,    9.1,   0.00,   0.00, 1012.8,   73.0, -999.0
29-03-2022, 00:25:30,    188,    0.0,    9.1,   0.00,   0.00, 1012.8,   73.0, -999.0
29-03-2022, 00:25:40,    187,    0.0,    9.0,   0.00,   0.00, 1012.7,   72.9, -999.0
29-03-2022, 00:25:50,    188,    0.0,    9.1,   0.00,   0.00, 1012.7,   73.1, -999.0
29-03-2022, 00:26:00,    187,    0.0,    9.1,   0.00,   0.00, 1012.8,   73.1, -999.0
29-03-2022, 00:26:10,    188,    0.0,    9.2,   0.00,   0.00, 1012.7,   73.1, -999.0
29-03-2022, 00:26:20,    187,    0.0,    9.1,   0.00,   0.00, 1012.7,   73.0, -999.0
29-03-2022, 00:26:30,    188,    0.0,    9.1,   0.00,   0.00, 1012.7,   73.1, -999.0
29-03-2022, 00:26:40,    188,    0.0,    9.0,   0.00,   0.00, 1012.7,   73.1, -999.0
29-03-2022, 00:26:50,    187,    0.0,    9.1,   0.00,   0.00, 1012.7,   73.1, -999.0
29-03-2022, 00:27:00,    187,    0.0,    9.1,   0.00,   0.00, 1012.7,   73.1, -999.0
29-03-2022, 00:27:10,    188,    0.0,    9.1,   0.00,   0.00, 1012.7,   73.1, -999.0
29-03-2022, 00:27:20,    187,    0.0,    9.0,   0.00,   0.00, 1012.7,   73.1, -999.0
29-03-2022, 00:27:30,    188,    0.0,    9.1,   0.00,   0.00, 1012.7,   73.2, -999.0
29-03-2022, 00:27:40,    187,    0.0,    9.1,   0.00,   0.00, 1012.7,   73.3, -999.0
29-03-2022, 00:27:50,    188,    0.0,    9.0,   0.00,   0.00, 1012.7,   73.4, -999.0
29-03-2022, 00:27:59,    187,    0.0,    9.1,   0.00,   0.00, 1012.7,   73.4, -999.0
29-03-2022, 00:28:10,    188,    0.0,    9.1,   0.00,   0.00, 1012.7,   73.3, -999.0
29-03-2022, 00:28:20,    188,    0.0,    9.1,   0.00,   0.00, 1012.7,   73.2, -999.0
29-03-2022, 00:28:29,    188,    0.0,    9.1,   0.00,   0.00, 1012.7,   73.2, -999.0
29-03-2022, 00:28:40,    187,    0.0,    9.1,   0.00,   0.00, 1012.7,   73.3, -999.0
29-03-2022, 00:28:49,    187,    0.0,    9.1,   0.00,   0.00, 1012.7,   73.3, -999.0
29-03-2022, 00:28:59,    187,    0.0,    9.1,   0.00,   0.00, 1012.7,   73.3, -999.0
29-03-2022, 00:29:09,    187,    0.0,    9.1,   0.00,   0.00, 1012.7,   73.4, -999.0
29-03-2022, 00:29:19,    188,    0.0,    9.1,   0.00,   0.00, 1012.7,   73.3, -999.0
29-03-2022, 00:29:29,    187,    0.0,    9.1,   0.00,   0.00, 1012.6,   73.5, -999.0
29-03-2022, 00:29:39,    187,    0.0,    9.1,   0.00,   0.00, 1012.7,   73.5, -999.0
29-03-2022, 00:29:49,    188,    0.0,    9.1,   0.00,   0.00, 1012.7,   73.4, -999.0
29-03-2022, 00:29:59,    188,    0.0,    9.0,   0.00,   0.00, 1012.7,   73.4, -999.0
29-03-2022, 00:30:09,    188,    0.0,    9.1,   0.00,   0.00, 1012.7,   73.4, -999.0
29-03-2022, 00:30:19,    188,    0.0,    9.1,   0.00,   0.00, 1012.7,   73.2, -999.0
29-03-2022, 00:30:29,    188,    0.0,    9.1,   0.00,   0.00, 1012.7,   73.4, -999.0
29-03-2022, 00:30:39,    188,    0.0,    9.1,   0.00,   0.00, 1012.7,   73.3, -999.0
29-03-2022, 00:30:49,    188,    0.0,    9.1,   0.00,   0.00, 1012.7,   73.5, -999.0
29-03-2022, 00:30:59,    187,    0.0,    9.1,   0.00,   0.00, 1012.7,   73.4, -999.0
29-03-2022, 00:31:09,    187,    0.0,    9.1,   0.00,   0.00, 1012.7,   73.5, -999.0
29-03-2022, 00:31:19,    187,    0.0,    9.1,   0.00,   0.00, 1012.7,   73.4, -999.0
29-03-2022, 00:31:29,    187,    0.0,    9.1,   0.00,   0.00, 1012.7,   73.4, -999.0
29-03-2022, 00:31:38,    188,    0.0,    9.1,   0.00,   0.00, 1012.7,   73.3, -999.0
29-03-2022, 00:31:49,    188,    0.0,    9.1,   0.00,   0.00, 1012.7,   73.4, -999.0
29-03-2022, 00:31:58,    188,    0.0,    9.1,   0.00,   0.00, 1012.7,   73.4, -999.0
29-03-2022, 00:32:08,    187,    0.0,    9.1,   0.00,   0.00, 1012.7,   73.5, -999.0
29-03-2022, 00:32:18,    187,    0.0,    9.1,   0.00,   0.00, 1012.6,   73.5, -999.0
29-03-2022, 00:32:28,    188,    0.0,    9.1,   0.00,   0.00, 1012.7,   73.5, -999.0
29-03-2022, 00:32:38,    188,    0.0,    9.1,   0.00,   0.00, 1012.7,   73.3, -999.0
29-03-2022, 00:32:48,    187,    0.0,    9.1,   0.00,   0.00, 1012.6,   73.3, -999.0
29-03-2022, 00:32:58,    187,    0.0,    9.0,   0.00,   0.00, 1012.6,   73.4, -999.0
29-03-2022, 00:33:08,    188,    0.0,    9.0,   0.00,   0.00, 1012.6,   73.4, -999.0
29-03-2022, 00:33:18,    188,    0.0,    8.9,   0.00,   0.00, 1012.7,   73.5, -999.0
29-03-2022, 00:33:28,    187,    0.0,    8.9,   0.00,   0.00, 1012.7,   73.6, -999.0
29-03-2022, 00:33:38,    188,    0.0,    8.9,   0.00,   0.00, 1012.6,   73.5, -999.0
29-03-2022, 00:33:48,    187,    0.0,    9.0,   0.00,   0.00, 1012.7,   73.6, -999.0
29-03-2022, 00:33:58,    187,    0.0,    8.9,   0.00,   0.00, 1012.7,   73.6, -999.0
29-03-2022, 00:34:08,    187,    0.0,    8.9,   0.00,   0.00, 1012.7,   73.6, -999.0
29-03-2022, 00:34:18,    188,    0.0,    8.9,   0.00,   0.00, 1012.7,   73.6, -999.0
29-03-2022, 00:34:28,    187,    0.0,    8.9,   0.00,   0.00, 1012.7,   73.7, -999.0
29-03-2022, 00:34:37,    187,    0.0,    8.9,   0.00,   0.00, 1012.6,   73.7, -999.0
29-03-2022, 00:34:48,    187,    0.0,    8.9,   0.00,   0.00, 1012.7,   73.7, -999.0
29-03-2022, 00:34:58,    187,    0.0,    8.9,   0.00,   0.00, 1012.6,   73.9, -999.0
29-03-2022, 00:35:07,    187,    0.0,    8.9,   0.00,   0.00, 1012.6,   74.0, -999.0
29-03-2022, 00:35:17,    187,    0.0,    8.9,   0.00,   0.00, 1012.6,   74.0, -999.0
29-03-2022, 00:35:28,    187,    0.0,    8.9,   0.00,   0.00, 1012.6,   74.0, -999.0
29-03-2022, 00:35:37,    187,    0.0,    8.7,   0.00,   0.00, 1012.7,   74.0, -999.0
29-03-2022, 00:35:47,    187,    0.0,    8.9,   0.00,   0.00, 1012.6,   74.1, -999.0
29-03-2022, 00:35:57,    187,    0.0,    8.9,   0.00,   0.00, 1012.6,   74.1, -999.0
29-03-2022, 00:36:07,    186,    0.0,    9.0,   0.00,   0.00, 1012.7,   74.4, -999.0
29-03-2022, 00:36:17,    187,    0.0,    9.0,   0.00,   0.00, 1012.6,   74.4, -999.0
29-03-2022, 00:36:27,    187,    0.0,    9.1,   0.00,   0.00, 1012.6,   74.4, -999.0
29-03-2022, 00:36:37,    187,    0.0,    9.1,   0.00,   0.00, 1012.6,   74.2, -999.0
29-03-2022, 00:36:47,    187,    0.0,    9.0,   0.00,   0.00, 1012.6,   74.1, -999.0
29-03-2022, 00:36:57,    185,    0.0,    9.0,   0.00,   0.00, 1012.7,   74.0, -999.0
29-03-2022, 00:37:07,    183,    0.0,    8.9,   0.00,   0.00, 1012.6,   73.9, -999.0
29-03-2022, 00:37:17,    183,    0.0,    9.0,   0.00,   0.00, 1012.7,   74.1, -999.0
29-03-2022, 00:37:27,    182,    0.0,    9.0,   0.00,   0.00, 1012.6,   74.1, -999.0
29-03-2022, 00:37:37,    182,    0.0,    8.9,   0.00,   0.00, 1012.7,   74.2, -999.0
29-03-2022, 00:37:46,    183,    0.0,    9.0,   0.00,   0.00, 1012.7,   74.2, -999.0
29-03-2022, 00:37:57,    183,    0.0,    9.0,   0.00,   0.00, 1012.7,   74.1, -999.0
29-03-2022, 00:38:07,    182,    0.0,    8.9,   0.00,   0.00, 1012.7,   74.2, -999.0
29-03-2022, 00:38:16,    182,    0.0,    8.9,   0.00,   0.00, 1012.7,   74.1, -999.0
29-03-2022, 00:38:26,    182,    0.0,    8.9,   0.00,   0.00, 1012.7,   74.2, -999.0
29-03-2022, 00:38:37,    179,    0.0,    8.9,   0.00,   0.00, 1012.7,   74.3, -999.0
29-03-2022, 00:38:46,    179,    0.0,    8.8,   0.00,   0.00, 1012.7,   74.3, -999.0
29-03-2022, 00:38:56,    180,    0.0,    8.9,   0.00,   0.00, 1012.6,   74.3, -999.0
29-03-2022, 00:39:06,    222,    0.0,    8.7,   0.00,   0.00, 1012.6,   74.3, -999.0
29-03-2022, 00:39:16,    222,    0.0,    8.9,   0.00,   0.00, 1012.6,   74.4, -999.0
29-03-2022, 00:39:26,    224,    0.0,    8.8,   0.00,   0.00, 1012.6,   74.4, -999.0
29-03-2022, 00:39:36,    241,    0.0,    8.8,   0.00,   0.00, 1012.6,   74.5, -999.0
29-03-2022, 00:39:46,    241,    0.0,    8.8,   0.00,   0.00, 1012.6,   74.6, -999.0
29-03-2022, 00:39:56,    242,    0.0,    8.7,   0.00,   0.00, 1012.6,   74.7, -999.0
29-03-2022, 00:40:06,    242,    0.0,    8.8,   0.00,   0.00, 1012.6,   74.6, -999.0
29-03-2022, 00:40:16,    243,    0.0,    8.7,   0.00,   0.00, 1012.6,   74.8, -999.0
29-03-2022, 00:40:26,    244,    0.0,    8.6,   0.00,   0.00, 1012.6,   74.9, -999.0
29-03-2022, 00:40:36,    244,    0.0,    8.7,   0.00,   0.00, 1012.6,   74.9, -999.0
29-03-2022, 00:40:46,    245,    0.0,    8.7,   0.00,   0.00, 1012.6,   75.0, -999.0
29-03-2022, 00:40:55,    245,    0.0,    8.7,   0.00,   0.00, 1012.6,   75.1, -999.0
29-03-2022, 00:41:06,    245,    0.0,    8.7,   0.00,   0.00, 1012.6,   75.1, -999.0
29-03-2022, 00:41:16,    247,    0.0,    8.7,   0.00,   0.00, 1012.6,   75.2, -999.0
29-03-2022, 00:41:25,    246,    0.0,    8.8,   0.00,   0.00, 1012.6,   75.5, -999.0
29-03-2022, 00:41:35,    245,    0.0,    8.9,   0.00,   0.00, 1012.6,   75.5, -999.0
29-03-2022, 00:41:46,    245,    0.0,    8.9,   0.00,   0.00, 1012.6,   75.6, -999.0
29-03-2022, 00:41:55,    245,    0.0,    8.9,   0.00,   0.00, 1012.6,   75.7, -999.0
29-03-2022, 00:42:05,    243,    0.0,    9.0,   0.00,   0.00, 1012.6,   75.5, -999.0
29-03-2022, 00:42:16,    244,    0.0,    9.0,   0.00,   0.00, 1012.6,   75.6, -999.0
29-03-2022, 00:42:25,    244,    0.0,    9.1,   0.00,   0.00, 1012.6,   75.5, -999.0
29-03-2022, 00:42:35,    244,    0.0,    9.0,   0.00,   0.00, 1012.6,   75.4, -999.0
29-03-2022, 00:42:45,    243,    0.0,    9.0,   0.00,   0.00, 1012.6,   75.3, -999.0
29-03-2022, 00:42:55,    244,    0.0,    9.0,   0.00,   0.00, 1012.6,   75.3, -999.0
29-03-2022, 00:43:05,    243,    0.0,    9.0,   0.00,   0.00, 1012.6,   75.2, -999.0
29-03-2022, 00:43:15,    244,    0.0,    9.0,   0.00,   0.00, 1012.6,   75.1, -999.0
29-03-2022, 00:43:25,    244,    0.0,    8.9,   0.00,   0.00, 1012.6,   74.9, -999.0
29-03-2022, 00:43:35,    244,    0.0,    8.9,   0.00,   0.00, 1012.6,   74.9, -999.0
29-03-2022, 00:43:45,    244,    0.0,    8.9,   0.00,   0.00, 1012.6,   74.9, -999.0
29-03-2022, 00:43:55,    244,    0.0,    8.8,   0.00,   0.00, 1012.5,   74.8, -999.0
29-03-2022, 00:44:04,    243,    0.0,    8.7,   0.00,   0.00, 1012.5,   74.9, -999.0
29-03-2022, 00:44:15,    244,    0.0,    8.7,   0.00,   0.00, 1012.6,   75.0, -999.0
29-03-2022, 00:44:25,    243,    0.0,    8.8,   0.00,   0.00, 1012.6,   75.0, -999.0
29-03-2022, 00:44:34,    244,    0.0,    8.7,   0.00,   0.00, 1012.6,   75.0, -999.0
29-03-2022, 00:44:45,    243,    0.0,    8.7,   0.00,   0.00, 1012.6,   75.0, -999.0
29-03-2022, 00:44:55,    244,    0.0,    8.7,   0.00,   0.00, 1012.6,   75.0, -999.0
29-03-2022, 00:45:04,    244,    0.0,    8.7,   0.00,   0.00, 1012.6,   75.2, -999.0
29-03-2022, 00:45:14,    244,    0.0,    8.7,   0.00,   0.00, 1012.6,   75.2, -999.0
29-03-2022, 00:45:25,    244,    0.0,    8.8,   0.00,   0.00, 1012.5,   75.5, -999.0
29-03-2022, 00:45:34,    244,    0.0,    8.7,   0.00,   0.00, 1012.5,   75.6, -999.0
29-03-2022, 00:45:44,    244,    0.0,    8.7,   0.00,   0.00, 1012.6,   75.5, -999.0
29-03-2022, 00:45:54,    244,    0.0,    8.7,   0.00,   0.00, 1012.5,   75.5, -999.0
29-03-2022, 00:46:04,    244,    0.0,    8.7,   0.00,   0.00, 1012.5,   75.5, -999.0
29-03-2022, 00:46:14,    244,    0.0,    8.6,   0.00,   0.00, 1012.5,   75.5, -999.0
29-03-2022, 00:46:24,    244,    0.0,    8.7,   0.00,   0.00, 1012.5,   75.7, -999.0
29-03-2022, 00:46:34,    245,    0.0,    8.6,   0.00,   0.00, 1012.5,   75.7, -999.0
29-03-2022, 00:46:44,    245,    0.0,    8.7,   0.00,   0.00, 1012.5,   75.6, -999.0